Main page
METAR-TAF:

METAR-TAF

Airports :

Bétera-Valencia

Valencia, Spain

latitude: 39-37-26N, longitude: 0-28-26W, elevation: 127 m

Current weather observation

The report was made 37 minutes ago, at 12:30 UTC
Wind 7 kt from the West/Southwest, varying between South/Southwest and West/Northwest
Temperature 17°C
Humidity 59%
Pressure 1012 hPa
Visibility 10 km or more
no clouds below 1500 m and no cumulonimbus

METAR: LEBT 211230Z AUTO 25007KT 210V300 CAVOK 17/09 Q1012

Time: 14:07 (13:07 UTC)


TAF: missing

Weather observations and forecasts of more than 4000 airports (METAR and TAF reports).

The available stations are represented by yellow and red dots on the map.

Hover mouse over dot to see the name of the station.

Then click to see weather observations and forecasts.

To change the map : click on the green buttons with a black cross to zoom in, on the green button with a dash to zoom out, or on the green arrows for adjacent maps.


METAR-TAF: